Simultaneous Nadir Overpasses (SNOs) Predictions

Prediction of SNOs between NOAA-15 and METOP-C Satellite Orbit:

Table of predicted SNOs for the next 14.0 days since TLE Epoch: 9/30/2023
Index Date (NOAA-15) Time (NOAA-15) Lat,Lon (NOAA-15) SZA (NOAA-15 ) Date (METOP-C) Time (METOP-C) Lat,Lon (METOP-C) SZA (METOP-C ) Distance(km) Time Diff (sec)
1 10/07/2023 18:16:17 81.07, -55.50 88.88 10/07/2023 18:15:14 81.07, -55.46 88.85 0.66 63
2 10/07/2023 19:06:51 -81.06, 111.93 91.11 10/07/2023 19:05:55 -81.07, 111.93 91.13 0.46 56
3 10/07/2023 19:57:18 81.07, -80.87 88.90 10/07/2023 19:56:36 81.06, -80.93 88.86 1.64 42
4 10/07/2023 20:47:52 -81.07, 86.55 91.09 10/07/2023 20:47:17 -81.06, 86.46 91.12 1.83 35
5 10/07/2023 21:38:18 81.06,-105.87 88.94 10/07/2023 21:37:57 81.07,-106.03 88.92 2.83 21
6 10/07/2023 22:28:53 -81.08, 61.18 91.07 10/07/2023 22:28:38 -81.07, 61.36 91.06 3.11 15
7 10/07/2023 23:19:19 81.07,-131.25 88.96 10/07/2023 23:19:18 81.08,-131.12 88.98 2.54 1
8 10/08/2023 00:09:54 -81.08, 35.81 91.05 10/08/2023 00:10:00 -81.07, 35.89 91.05 2.06 6
9 10/08/2023 01:00:20 81.07,-156.62 88.98 10/08/2023 01:00:40 81.07,-156.60 88.99 0.50 20
10 10/08/2023 01:50:54 -81.07, 10.80 91.01 10/08/2023 01:51:21 -81.08, 10.79 90.99 0.80 27
11 10/08/2023 02:41:21 81.08, 178.00 89.00 10/08/2023 02:42:02 81.07, 177.93 89.00 1.54 41
12 10/08/2023 03:31:55 -81.08, -14.58 90.99 10/08/2023 03:32:43 -81.07, -14.68 90.98 1.77 48
13 10/08/2023 04:22:21 81.07, 153.00 89.04 10/08/2023 04:23:23 81.08, 152.83 89.06 3.12 62



Historial Predications of SNOs between NOAA-15 and METOP-C
